Location: Rounton
(54.4000°N, 1.3500°W)
Time: 10:30:41
(UTC+01:00)

Tiros 1 despin weight - Visible Passes

Search period start: 24 September 2023 00:00
Search period end: 04 October 2023 00:00
Orbit: 585 x 629 km, 48.2° (Epoch: 23 September)

Date Brightness Start Highest point End Pass type
(mag) Time Alt. Az. Time Alt. Az. Time Alt. Az.
29 Sep ? 20:39:58 10° S 20:40:17 11° S 20:40:17 11° S visible
30 Sep ? 20:51:32 10° SSW 20:53:09 16° S 20:53:09 16° S visible
01 Oct ? 21:03:39 10° SW 21:05:51 21° S 21:05:51 21° S visible
02 Oct ? 19:37:06 10° S 19:39:35 15° SSE 19:41:35 11° ESE visible
02 Oct ? 21:16:02 10° SW 21:18:25 24° SSW 21:18:25 24° SSW visible
03 Oct ? 19:48:47 10° SSW 19:52:07 20° SSE 19:54:03 16° ESE visible
03 Oct ? 21:28:35 10° WSW 21:30:53 25° SW 21:30:53 25° SW visible
